Other Public Products
Issued by NWS Charleston, SC

Current Version | Previous Version | Graphics & Text | Print | Product List | Glossary On
Versions: 1 2 3 4 5 6 7 8 9 10 11 12 13 14 15 16 17 18 19 20 21 22 23 24 25 26 27 28 29 30 31 32 33 34 35 36 37 38 39 40 41 42 43 44 45 46 47 48 49 50
290 FPUS82 KCHS 230127 OPUCHS TEST...KCHS/KSAV Gateway Observations...TEST National Weather Service Charleston SC 800 PM EST MON JAN 22 2018 NOTE: "fair" indicates few or no clouds below 12,000 feet with no significant weather and/or obstructions to visibility. SCZ050-WAZ558-NCZ071-TXZ119-213-PAZ071-DCZ001-FLZ074-172-MI076- NYZ176-178-MAZ016-IL014-TNZ027-NJZ106-GAZ044-MD014-230200- ...Gateway Observations for Charleston International... CITY SKY/WX TMP DP RH WIND PRES REMARKS Chas Airport FAIR 62 59 90 SE8 30.05F Seattle MOCLDY 44 37 76 S9 30.29S Charlotte MOCLDY 57 45 64 SE10 30.02S Dallas DFW PTCLDY 55 21 26 NW13 30.07R Dallas Love CLEAR 55 22 27 NW9 30.08R Philladelphia MOCLDY 51 40 65 E5 30.06F Wash National CLOUDY 55 43 63 SE8 30.00F Baltimore MOCLDY 51 43 74 SE5 30.01F Miami MOCLDY 75 67 76 E14 30.07R Detroit CLOUDY 50 45 83 S12 29.62S Newark CLOUDY 41 38 89 N9 30.13F Laguardia CLOUDY 39 35 86 NE12 30.14S WCI 32 J F K CLOUDY 42 42 100 NE8 30.14F Boston Logan LGT RAIN 38 38 100 E6 30.24F FOG WCI 33 Ft. Lauderdale MOCLDY 74 68 81 E10 30.07R Chicago O`Hare CLOUDY 46 42 86 SW10 29.46R Chicago Midway LGT RAIN 47 43 86 SW29 29.48R Houston Bush FAIR 57 29 34 NW5 30.09R Houston Hobby FAIR 57 29 34 N9 30.08R Nashville MOCLDY 62 52 69 SW15G26 29.73R Atlanta RAIN 61 61 100 VRB3 29.91F VSB 1 $$ GAZ044-118-TXZ119-213-NCZ071-DCZ001-MDZ014-506-PAZ021-071-NJZ106- NYZ176-178-MAZ106-OHZ011-021-055-MIZ076-KYZ091-ILZ014-INZ047- MNZ060-ONZ431-230200- ...Gateway Observations for Savannah International... CITY SKY/WX TMP DP RH WIND PRES REMARKS Savannah Arpt MOCLDY 63 61 93 S8 30.05R Atlanta RAIN 61 61 100 VRB3 29.91F VSB 1 Charlotte MOCLDY 57 45 64 SE10 30.02S Dallas DFW PTCLDY 55 21 26 NW13 30.07R Houston Bush FAIR 57 29 34 NW5 30.09R Wash National CLOUDY 55 43 63 SE8 30.00F Wash Dulles MOCLDY 57 43 59 SE10 29.98F Baltimore MOCLDY 51 43 74 SE5 30.01F Philadelphia MOCLDY 51 40 65 E5 30.06F Newark CLOUDY 41 38 89 N9 30.13F Laguardia CLOUDY 39 35 86 NE12 30.14S WCI 32 J F K CLOUDY 42 42 100 NE8 30.14F Boston LGT RAIN 38 38 100 E6 30.24F FOG WCI 33 Pittsburg CLOUDY 59 42 53 S6 29.78F Akron CLOUDY 54 47 77 S15 29.72F Cleveland CLOUDY 56 48 74 S18G26 29.68F Cincinnati FAIR 56 53 90 S21 29.58F Columbus CLOUDY 54 49 83 S14 29.65F Detroit CLOUDY 50 45 83 S12 29.62S Chicago O`Hare CLOUDY 46 42 86 SW10 29.46R Minneapolis LGT SNOW 26 26 100 N16G26 29.74R VSB 3/4 WCI 14 Indianapolis FAIR 52 47 83 S14 29.54F Toronto Canada FOG 34 32 93 E6 29.78 VSB 1/2 WCI 29 $$

USA.gov is the U.S. government's official web portal to all federal, state and local government web resources and services.